Notices

What's New in latest Release from April 7th, 2021:

- Updated Glossary, including Speed of Maximum Gust, and Total Hourly Precipitation

- Updated national and regional climate services offices contacts and prices information

- Addition of station inventory lists for 1981-2010, 1971-2000, and 1961-1990 Normals.

If you haven't already, please take our survey and provide feedback about our website: https://eccc.sondage-survey.ca/f/LanguageSelection.aspx?s=442ca660-fcf1-47c0-95a9-59707d6fd709

Hourly Data Report for January 06, 2021

CARBERRY CS
MANITOBA
Current Station Operator: ECCC - MSC

49°54'20.900" N
99°21'26.800" W
383.50 m
5010547
71170
WZE

Download Data

Hourly Data (January 2021)
Hourly Data Report for January 6, 2021
TIME
LST
Temp Definition
°C
Dew Point Definition
°C
Rel Hum Definition
%
Precip. Amount Definition
mm

Wind Dir Definition
10's deg

Wind Spd Definition
km/h
Visibility Definition
km
Stn Press Definition
kPa
Hmdx Definition


Wind Chill Definition


Weather Definition


00:00 -2.3 -4.9 82 0.0 18 19   97.19   -8 LegendNANA
01:00 -2.1 -4.8 82 0.0 17 17   97.19   -7 LegendNANA
02:00 -2.5 -5.0 83 0.0 17 13   97.20   -7 LegendNANA
03:00 -2.2 -4.3 86 0.0 20 10   97.26   -6 LegendNANA
04:00 -1.9 -3.5 89 0.0 20 10   97.25   -6 LegendNANA
05:00 -0.8 -2.1 91 0.0 22 9   97.31   -4 LegendNANA
06:00 -0.6 -2.0 90 0.0 23 10   97.38   -4 LegendNANA
07:00 -1.6 -3.4 88 0.0 22 7   97.39   -4 LegendNANA
08:00 -2.1 -3.6 89 0.0 24 8   97.45   -5 LegendNANA
09:00 -2.2 -3.2 92 0.0 21 9   97.52   -6 LegendNANA
10:00 -2.1 -3.1 93 0.0 22 11   97.56   -6 LegendNANA
11:00 -2.4 -2.9 96 0.0 23 15   97.61   -7 LegendNANA
12:00 -2.4 -3.2 94 0.0 23 16   97.62   -8 LegendNANA
13:00 -2.5 -3.2 95 0.0 22 12   97.57   -7 LegendNANA
14:00 -2.5 -2.8 98 0.0 22 10   97.53   -6 LegendNANA
15:00 -2.6 -2.9 98 0.0 18 17   97.52   -8 LegendNANA
16:00 -2.6 -3.0 97 0.0 21 12   97.61   -7 LegendNANA
17:00 -3.3 -3.4 100 0.0 20 13   97.57   -8 LegendNANA
18:00 -3.9 -3.9 100 0.0 22 7   97.60   -7 LegendNANA
19:00 -4.2 -4.2 100 0.0 23 6   97.61   -7 LegendNANA
20:00 -4.6 -4.7 100 0.0 21 8   97.61   -8 LegendNANA
21:00 -5.8 -5.9 100 0.0 16 10   97.55   -10 LegendNANA
22:00 -6.4 -6.5 100 0.0 20 9   97.54   -11 LegendNANA
23:00 -4.2 -4.3 100 0.0 17 10   97.51   -8 LegendNANA

Notes on Data Quality.

Legend

  • E = Estimated
  • M = Missing
  • NA = Not Available*
  • [empty] = Indicates an unobserved value
Date modified: